Time,TemperatureF,DewpointF,PressureIn,WindDirection,WindDirectionDegrees,WindSpeedMPH,WindSpeedGustMPH,Humidity,HourlyPrecipIn,Conditions,Clouds,dailyrainin,SoftwareType,DateUTC
2013-04-12 00:03:00,77.7,74.9,29.85,ENE,68,2.7,2.7,91,0.00,,---,0.67,VWS V14.01,2013-04-12 04:03:00,
2013-04-12 00:08:00,77.5,74.7,29.85,ENE,68,2.7,2.7,91,0.00,,---,0.67,VWS V14.01,2013-04-12 04:08:00,
2013-04-12 00:13:00,77.5,74.7,29.85,ENE,68,2.7,2.7,91,0.00,,---,0.67,VWS V14.01,2013-04-12 04:13:00,
2013-04-12 00:18:00,77.5,74.7,29.85,ENE,68,2.7,2.7,91,0.00,,---,0.67,VWS V14.01,2013-04-12 04:18:00,
2013-04-12 00:23:00,77.5,74.7,29.85,ENE,68,2.7,2.7,91,0.00,,---,0.67,VWS V14.01,2013-04-12 04:23:00,
2013-04-12 00:28:00,77.5,75.0,29.85,ENE,68,2.7,2.7,92,0.00,,---,0.67,VWS V14.01,2013-04-12 04:28:00,
2013-04-12 00:33:00,77.5,75.0,29.85,ENE,68,2.7,2.7,92,0.00,,---,0.67,VWS V14.01,2013-04-12 04:33:00,
2013-04-12 00:38:00,77.5,75.0,29.85,ENE,68,2.7,2.7,92,0.00,,---,0.67,VWS V14.01,2013-04-12 04:38:00,
2013-04-12 00:43:00,77.5,75.0,29.85,ENE,68,2.7,2.7,92,0.00,,---,0.67,VWS V14.01,2013-04-12 04:43:00,
2013-04-12 00:48:00,77.5,75.0,29.85,ENE,68,2.7,2.7,92,0.00,,---,0.67,VWS V14.01,2013-04-12 04:48:00,
2013-04-12 00:53:00,77.5,75.0,29.85,ENE,68,2.7,2.7,92,0.00,,---,0.67,VWS V14.01,2013-04-12 04:53:00,
2013-04-12 00:58:00,77.5,75.0,29.85,ENE,68,2.7,2.7,92,0.00,,---,0.00,VWS V14.01,2013-04-12 04:58:00,
2013-04-12 01:03:00,77.5,75.0,29.85,ENE,68,2.7,2.7,92,0.00,,---,0.00,VWS V14.01,2013-04-12 05:03:00,
2013-04-12 01:08:00,77.5,75.0,29.85,ENE,68,2.7,2.7,92,0.00,,---,0.00,VWS V14.01,2013-04-12 05:08:00,
2013-04-12 01:13:00,77.5,75.0,29.85,ENE,68,2.7,2.7,92,0.00,,---,0.00,VWS V14.01,2013-04-12 05:13:00,
2013-04-12 01:18:00,77.5,75.0,29.82,ENE,68,2.7,2.7,92,0.00,,---,0.00,VWS V14.01,2013-04-12 05:18:00,
2013-04-12 01:23:00,77.7,75.2,29.82,ENE,68,2.7,2.7,92,0.00,,---,0.00,VWS V14.01,2013-04-12 05:23:00,
2013-04-12 01:28:00,77.7,75.2,29.82,ENE,68,2.7,2.7,92,0.00,,---,0.00,VWS V14.01,2013-04-12 05:28:00,
2013-04-12 01:33:00,77.9,75.1,29.82,ENE,68,2.7,2.7,91,0.00,,---,0.00,VWS V14.01,2013-04-12 05:33:00,
2013-04-12 01:38:00,77.9,75.4,29.82,ENE,68,2.7,2.7,92,0.00,,---,0.00,VWS V14.01,2013-04-12 05:38:00,
2013-04-12 01:43:00,77.9,75.4,29.82,ENE,68,2.7,2.7,92,0.00,,---,0.00,VWS V14.01,2013-04-12 05:43:00,
2013-04-12 01:48:00,77.9,75.4,29.85,ENE,68,2.7,2.7,92,0.00,,---,0.00,VWS V14.01,2013-04-12 05:48:00,
2013-04-12 01:53:00,77.9,75.4,29.85,ENE,68,2.7,2.7,92,0.00,,---,0.00,VWS V14.01,2013-04-12 05:53:00,
2013-04-12 01:58:00,77.9,75.1,29.85,ENE,68,2.7,2.7,91,0.00,,---,0.00,VWS V14.01,2013-04-12 05:58:00,
2013-04-12 02:03:00,77.9,75.1,29.85,ENE,68,2.7,2.7,91,0.00,,---,0.00,VWS V14.01,2013-04-12 06:03:00,
2013-04-12 02:08:00,77.9,75.1,29.85,ENE,68,2.7,2.7,91,0.00,,---,0.00,VWS V14.01,2013-04-12 06:08:00,
2013-04-12 02:13:00,77.9,75.1,29.85,ENE,68,2.7,2.7,91,0.00,,---,0.00,VWS V14.01,2013-04-12 06:13:00,
2013-04-12 02:18:00,77.9,75.1,29.85,ENE,68,2.7,2.7,91,0.00,,---,0.00,VWS V14.01,2013-04-12 06:18:00,
2013-04-12 02:23:00,77.9,75.1,29.85,ENE,68,2.7,2.7,91,0.00,,---,0.00,VWS V14.01,2013-04-12 06:23:00,
2013-04-12 02:28:00,77.9,74.7,29.85,ENE,68,2.7,2.7,90,0.00,,---,0.00,VWS V14.01,2013-04-12 06:28:00,
2013-04-12 02:33:00,78.1,74.9,29.85,ENE,68,2.7,2.7,90,0.00,,---,0.00,VWS V14.01,2013-04-12 06:33:00,
2013-04-12 02:38:00,78.1,74.9,29.85,ENE,68,2.7,2.7,90,0.00,,---,0.00,VWS V14.01,2013-04-12 06:38:00,
2013-04-12 02:42:00,78.1,74.9,29.85,ENE,68,2.7,2.7,90,0.00,,---,0.00,VWS V14.01,2013-04-12 06:42:00,
2013-04-12 02:47:00,78.1,74.9,29.85,ENE,68,2.7,2.7,90,0.00,,---,0.00,VWS V14.01,2013-04-12 06:47:00,
2013-04-12 02:52:00,78.1,74.6,29.85,ENE,68,2.7,2.7,89,0.00,,---,0.00,VWS V14.01,2013-04-12 06:52:00,
2013-04-12 02:57:00,78.1,74.6,29.85,ENE,68,2.7,2.7,89,0.00,,---,0.00,VWS V14.01,2013-04-12 06:57:00,
2013-04-12 03:02:00,78.1,74.6,29.85,ENE,68,2.7,2.7,89,0.00,,---,0.00,VWS V14.01,2013-04-12 07:02:00,
2013-04-12 03:07:00,78.1,74.6,29.85,ENE,68,2.7,2.7,89,0.00,,---,0.00,VWS V14.01,2013-04-12 07:07:00,
2013-04-12 03:12:00,78.1,74.6,29.85,ENE,68,2.7,2.7,89,0.00,,---,0.00,VWS V14.01,2013-04-12 07:12:00,
2013-04-12 03:17:00,77.9,74.4,29.85,ENE,68,2.7,2.7,89,0.00,,---,0.00,VWS V14.01,2013-04-12 07:17:00,
2013-04-12 03:22:00,77.9,74.4,29.85,ENE,68,2.7,2.7,89,0.00,,---,0.00,VWS V14.01,2013-04-12 07:22:00,
2013-04-12 03:27:00,77.9,74.7,29.85,ENE,68,2.7,2.7,90,0.00,,---,0.00,VWS V14.01,2013-04-12 07:27:00,
2013-04-12 03:32:00,77.5,74.4,29.85,ENE,68,2.7,2.7,90,0.00,,---,0.00,VWS V14.01,2013-04-12 07:32:00,
2013-04-12 03:37:00,77.4,74.5,29.85,ENE,68,2.7,2.7,91,0.00,,---,0.00,VWS V14.01,2013-04-12 07:37:00,
2013-04-12 03:42:00,77.4,74.5,29.85,ENE,68,2.7,2.7,91,0.00,,---,0.00,VWS V14.01,2013-04-12 07:42:00,
2013-04-12 03:47:00,77.2,74.7,29.82,ENE,68,2.7,2.7,92,0.00,,---,0.00,VWS V14.01,2013-04-12 07:47:00,
2013-04-12 03:52:00,77.2,74.7,29.82,ENE,68,2.7,2.7,92,0.00,,---,0.00,VWS V14.01,2013-04-12 07:52:00,
2013-04-12 03:57:00,77.0,74.5,29.82,ENE,68,2.7,2.7,92,0.00,,---,0.00,VWS V14.01,2013-04-12 07:57:00,
2013-04-12 04:02:00,77.2,74.7,29.82,ENE,68,2.7,2.7,92,0.04,,---,0.04,VWS V14.01,2013-04-12 08:02:00,
2013-04-12 04:07:00,77.0,74.5,29.82,ENE,68,2.7,2.7,92,0.04,,---,0.04,VWS V14.01,2013-04-12 08:07:00,
2013-04-12 04:12:00,77.0,74.8,29.82,ENE,68,2.7,2.7,93,0.04,,---,0.04,VWS V14.01,2013-04-12 08:12:00,
2013-04-12 04:17:00,77.0,74.8,29.82,ENE,68,2.7,2.7,93,0.04,,---,0.04,VWS V14.01,2013-04-12 08:17:00,
2013-04-12 04:22:00,77.0,74.8,29.82,ENE,68,2.7,2.7,93,0.04,,---,0.04,VWS V14.01,2013-04-12 08:22:00,
2013-04-12 04:27:00,77.0,74.8,29.82,ENE,68,2.7,2.7,93,0.04,,---,0.04,VWS V14.01,2013-04-12 08:27:00,
2013-04-12 04:32:00,77.0,74.8,29.85,ENE,68,2.7,2.7,93,0.04,,---,0.04,VWS V14.01,2013-04-12 08:32:00,
2013-04-12 04:37:00,77.0,74.8,29.85,ENE,68,2.7,2.7,93,0.04,,---,0.04,VWS V14.01,2013-04-12 08:37:00,
2013-04-12 04:42:00,77.0,74.5,29.85,ENE,68,2.7,2.7,92,0.04,,---,0.04,VWS V14.01,2013-04-12 08:42:00,
2013-04-12 04:47:00,77.0,74.5,29.88,ENE,68,2.7,2.7,92,0.04,,---,0.04,VWS V14.01,2013-04-12 08:47:00,
2013-04-12 04:52:00,77.0,74.5,29.88,ENE,68,2.7,2.7,92,0.04,,---,0.04,VWS V14.01,2013-04-12 08:52:00,
2013-04-12 04:57:00,77.0,74.5,29.88,ENE,68,2.7,2.7,92,0.04,,---,0.04,VWS V14.01,2013-04-12 08:57:00,
2013-04-12 05:02:00,77.0,74.5,29.88,ENE,68,2.7,2.7,92,0.00,,---,0.04,VWS V14.01,2013-04-12 09:02:00,
2013-04-12 05:07:00,77.0,74.5,29.85,ENE,68,2.7,2.7,92,0.00,,---,0.04,VWS V14.01,2013-04-12 09:07:00,
2013-04-12 05:12:00,77.0,74.5,29.85,ENE,68,2.7,2.7,92,0.00,,---,0.04,VWS V14.01,2013-04-12 09:12:00,
2013-04-12 05:17:00,77.0,74.5,29.85,ENE,68,2.7,2.7,92,0.00,,---,0.04,VWS V14.01,2013-04-12 09:17:00,
2013-04-12 05:22:00,77.2,74.7,29.85,ENE,68,2.7,2.7,92,0.00,,---,0.04,VWS V14.01,2013-04-12 09:22:00,
2013-04-12 05:27:00,77.2,74.7,29.85,ENE,68,2.7,2.7,92,0.00,,---,0.04,VWS V14.01,2013-04-12 09:27:00,
2013-04-12 05:32:00,77.2,74.7,29.85,ENE,68,2.7,2.7,92,0.00,,---,0.04,VWS V14.01,2013-04-12 09:32:00,
2013-04-12 05:37:00,77.2,74.7,29.82,ENE,68,2.7,2.7,92,0.00,,---,0.04,VWS V14.01,2013-04-12 09:37:00,
2013-04-12 05:42:00,77.2,74.7,29.82,ENE,68,2.7,2.7,92,0.00,,---,0.04,VWS V14.01,2013-04-12 09:42:00,
2013-04-12 05:47:00,77.2,74.7,29.85,ENE,68,2.7,2.7,92,0.00,,---,0.04,VWS V14.01,2013-04-12 09:47:00,
2013-04-12 05:52:00,77.2,74.7,29.85,ENE,68,2.7,2.7,92,0.00,,---,0.04,VWS V14.01,2013-04-12 09:52:00,
2013-04-12 05:57:00,77.2,75.0,29.85,ENE,68,2.7,2.7,93,0.00,,---,0.04,VWS V14.01,2013-04-12 09:57:00,
2013-04-12 06:02:00,77.2,75.0,29.85,ENE,68,2.7,2.7,93,0.00,,---,0.04,VWS V14.01,2013-04-12 10:02:00,
2013-04-12 06:07:00,77.2,75.0,29.85,ENE,68,2.7,2.7,93,0.00,,---,0.04,VWS V14.01,2013-04-12 10:07:00,
2013-04-12 06:12:00,77.2,75.0,29.85,ENE,68,2.7,2.7,93,0.00,,---,0.04,VWS V14.01,2013-04-12 10:12:00,
2013-04-12 06:17:00,77.2,75.0,29.85,ENE,68,2.7,2.7,93,0.00,,---,0.04,VWS V14.01,2013-04-12 10:17:00,
2013-04-12 06:22:00,77.2,75.0,29.85,ENE,68,2.7,2.7,93,0.00,,---,0.04,VWS V14.01,2013-04-12 10:22:00,
2013-04-12 06:27:00,77.4,75.2,29.85,ENE,68,2.7,2.7,93,0.00,,---,0.04,VWS V14.01,2013-04-12 10:27:00,
2013-04-12 06:32:00,77.4,75.2,29.85,ENE,68,2.7,2.7,93,0.00,,---,0.04,VWS V14.01,2013-04-12 10:32:00,
2013-04-12 06:38:00,77.4,75.2,29.85,ENE,68,2.7,2.7,93,0.00,,---,0.04,VWS V14.01,2013-04-12 10:38:00,
2013-04-12 06:43:00,77.4,75.2,29.85,ENE,68,2.7,2.7,93,0.00,,---,0.04,VWS V14.01,2013-04-12 10:43:00,
2013-04-12 06:48:00,77.4,75.2,29.85,ENE,68,2.7,2.7,93,0.00,,---,0.04,VWS V14.01,2013-04-12 10:48:00,
2013-04-12 06:53:00,77.5,75.4,29.85,ENE,68,2.7,2.7,93,0.00,,---,0.04,VWS V14.01,2013-04-12 10:53:00,
2013-04-12 06:58:00,77.5,75.4,29.85,ENE,68,2.7,2.7,93,0.00,,---,0.04,VWS V14.01,2013-04-12 10:58:00,
2013-04-12 07:03:00,77.5,75.4,29.85,ENE,68,2.7,2.7,93,0.00,,---,0.04,VWS V14.01,2013-04-12 11:03:00,
2013-04-12 07:08:00,77.5,75.4,29.85,ENE,68,2.7,2.7,93,0.00,,---,0.04,VWS V14.01,2013-04-12 11:08:00,
2013-04-12 07:13:00,77.5,75.4,29.85,ENE,68,2.7,2.7,93,0.00,,---,0.04,VWS V14.01,2013-04-12 11:13:00,
2013-04-12 07:18:00,77.5,75.4,29.88,ENE,68,2.7,2.7,93,0.00,,---,0.04,VWS V14.01,2013-04-12 11:18:00,
2013-04-12 07:23:00,77.5,75.4,29.88,ENE,68,2.7,2.7,93,0.00,,---,0.04,VWS V14.01,2013-04-12 11:23:00,
2013-04-12 07:27:00,77.7,75.5,29.88,ENE,68,2.7,2.7,93,0.00,,---,0.04,VWS V14.01,2013-04-12 11:27:00,
2013-04-12 07:32:00,77.7,75.5,29.85,ENE,68,2.7,2.7,93,0.00,,---,0.04,VWS V14.01,2013-04-12 11:32:00,
2013-04-12 07:37:00,77.7,75.5,29.85,ENE,68,2.7,2.7,93,0.00,,---,0.04,VWS V14.01,2013-04-12 11:37:00,
2013-04-12 07:42:00,77.9,75.7,29.85,ENE,68,2.7,2.7,93,0.00,,---,0.04,VWS V14.01,2013-04-12 11:42:00,
2013-04-12 07:47:00,78.1,75.9,29.88,ENE,68,2.7,2.7,93,0.00,,---,0.04,VWS V14.01,2013-04-12 11:47:00,
2013-04-12 07:52:00,78.1,75.6,29.88,ENE,68,2.7,2.7,92,0.00,,---,0.04,VWS V14.01,2013-04-12 11:52:00,
2013-04-12 07:57:00,78.3,75.8,29.88,ENE,68,2.7,2.7,92,0.00,,---,0.04,VWS V14.01,2013-04-12 11:57:00,
2013-04-12 08:02:00,78.4,75.9,29.88,ENE,68,2.7,2.7,92,0.00,,---,0.04,VWS V14.01,2013-04-12 12:02:00,
2013-04-12 08:07:00,78.4,75.9,29.88,ENE,68,2.7,2.7,92,0.00,,---,0.04,VWS V14.01,2013-04-12 12:07:00,
2013-04-12 08:12:00,78.4,75.9,29.88,ENE,68,2.7,2.7,92,0.00,,---,0.04,VWS V14.01,2013-04-12 12:12:00,
2013-04-12 08:17:00,78.4,76.2,29.91,ENE,68,2.7,2.7,93,0.00,,---,0.04,VWS V14.01,2013-04-12 12:17:00,
2013-04-12 08:22:00,78.4,75.9,29.91,ENE,68,2.7,2.7,92,0.00,,---,0.04,VWS V14.01,2013-04-12 12:22:00,
2013-04-12 08:27:00,78.6,76.4,29.91,ENE,68,2.7,2.7,93,0.00,,---,0.04,VWS V14.01,2013-04-12 12:27:00,
2013-04-12 08:33:00,78.8,76.3,29.88,ENE,68,2.7,2.7,92,0.00,,---,0.04,VWS V14.01,2013-04-12 12:33:00,
2013-04-12 08:38:00,79.0,76.5,29.88,ENE,68,2.7,2.7,92,0.00,,---,0.04,VWS V14.01,2013-04-12 12:38:00,
2013-04-12 08:43:00,79.2,76.6,29.88,ENE,68,2.7,2.7,92,0.00,,---,0.04,VWS V14.01,2013-04-12 12:43:00,
2013-04-12 08:48:00,79.5,76.7,29.88,ENE,68,2.7,2.7,91,0.00,,---,0.04,VWS V14.01,2013-04-12 12:48:00,
2013-04-12 08:53:00,81.7,78.5,29.88,ENE,68,2.7,2.7,90,0.00,,---,0.04,VWS V14.01,2013-04-12 12:53:00,
2013-04-12 08:58:00,84.4,80.4,29.88,ENE,68,2.7,2.7,88,0.00,,---,0.04,VWS V14.01,2013-04-12 12:58:00,
2013-04-12 09:03:00,85.3,79.5,29.88,ENE,68,2.7,2.7,83,0.00,,---,0.04,VWS V14.01,2013-04-12 13:03:00,
2013-04-12 09:08:00,85.8,78.2,29.88,ENE,68,2.7,2.7,78,0.00,,---,0.04,VWS V14.01,2013-04-12 13:08:00,
2013-04-12 09:13:00,85.1,76.7,29.88,ENE,68,2.7,2.7,76,0.00,,---,0.04,VWS V14.01,2013-04-12 13:13:00,
2013-04-12 09:18:00,85.1,77.1,29.88,ENE,68,2.7,2.7,77,0.00,,---,0.04,VWS V14.01,2013-04-12 13:18:00,
2013-04-12 09:23:00,86.4,77.9,29.88,ENE,68,2.7,2.7,76,0.00,,---,0.04,VWS V14.01,2013-04-12 13:23:00,
2013-04-12 09:28:00,86.5,77.7,29.88,ENE,68,2.7,2.7,75,0.00,,---,0.04,VWS V14.01,2013-04-12 13:28:00,
2013-04-12 09:33:00,86.2,76.9,29.88,ENE,68,2.7,2.7,74,0.00,,---,0.04,VWS V14.01,2013-04-12 13:33:00,
2013-04-12 09:38:00,85.6,76.8,29.88,ENE,68,2.7,2.7,75,0.00,,---,0.04,VWS V14.01,2013-04-12 13:38:00,
2013-04-12 09:43:00,86.4,77.5,29.88,ENE,68,2.7,2.7,75,0.00,,---,0.04,VWS V14.01,2013-04-12 13:43:00,
2013-04-12 09:48:00,86.9,77.6,29.88,ENE,68,2.7,2.7,74,0.00,,---,0.04,VWS V14.01,2013-04-12 13:48:00,
2013-04-12 09:53:00,86.4,76.7,29.88,ENE,68,2.7,2.7,73,0.00,,---,0.04,VWS V14.01,2013-04-12 13:53:00,
2013-04-12 09:58:00,87.3,78.0,29.88,ENE,68,2.7,2.7,74,0.00,,---,0.04,VWS V14.01,2013-04-12 13:58:00,
2013-04-12 10:03:00,86.5,76.4,29.88,ENE,68,2.7,2.7,72,0.00,,---,0.04,VWS V14.01,2013-04-12 14:03:00,
2013-04-12 10:08:00,85.8,76.2,29.88,ENE,68,2.7,2.7,73,0.00,,---,0.04,VWS V14.01,2013-04-12 14:08:00,
2013-04-12 10:13:00,85.1,75.9,29.88,ENE,68,2.7,2.7,74,0.00,,---,0.04,VWS V14.01,2013-04-12 14:13:00,
2013-04-12 10:18:00,85.5,77.0,29.85,ENE,68,2.7,2.7,76,0.00,,---,0.04,VWS V14.01,2013-04-12 14:18:00,
2013-04-12 10:23:00,86.5,77.7,29.85,ENE,68,2.7,2.7,75,0.00,,---,0.04,VWS V14.01,2013-04-12 14:23:00,
2013-04-12 10:28:00,86.2,76.9,29.85,ENE,68,2.7,2.7,74,0.00,,---,0.04,VWS V14.01,2013-04-12 14:28:00,
2013-04-12 10:33:00,87.1,77.0,29.88,ENE,68,2.7,2.7,72,0.00,,---,0.04,VWS V14.01,2013-04-12 14:33:00,
2013-04-12 10:38:00,86.9,76.8,29.88,ENE,68,2.7,2.7,72,0.00,,---,0.04,VWS V14.01,2013-04-12 14:38:00,
2013-04-12 10:43:00,87.3,76.7,29.88,ENE,68,2.7,2.7,71,0.00,,---,0.04,VWS V14.01,2013-04-12 14:43:00,
2013-04-12 10:48:00,88.2,77.6,29.91,ENE,68,2.7,2.7,71,0.00,,---,0.04,VWS V14.01,2013-04-12 14:48:00,
2013-04-12 10:53:00,87.4,76.0,29.91,ENE,68,2.7,2.7,69,0.00,,---,0.04,VWS V14.01,2013-04-12 14:53:00,
2013-04-12 10:58:00,87.3,76.3,29.91,ENE,68,2.7,2.7,70,0.00,,---,0.04,VWS V14.01,2013-04-12 14:58:00,
2013-04-12 11:03:00,87.1,76.1,29.91,ENE,68,2.7,2.7,70,0.00,,---,0.04,VWS V14.01,2013-04-12 15:03:00,
2013-04-12 11:08:00,86.7,75.8,29.91,ENE,68,2.7,2.7,70,0.00,,---,0.04,VWS V14.01,2013-04-12 15:08:00,
2013-04-12 11:13:00,85.1,76.3,29.91,ENE,68,2.7,2.7,75,0.00,,---,0.04,VWS V14.01,2013-04-12 15:13:00,
2013-04-12 11:18:00,84.6,76.6,29.91,ENE,68,2.7,2.7,77,0.00,,---,0.04,VWS V14.01,2013-04-12 15:18:00,
2013-04-12 11:23:00,84.9,76.5,29.91,ENE,68,2.7,2.7,76,0.00,,---,0.04,VWS V14.01,2013-04-12 15:23:00,
2013-04-12 11:28:00,86.2,77.3,29.91,ENE,68,2.7,2.7,75,0.00,,---,0.04,VWS V14.01,2013-04-12 15:28:00,
2013-04-12 11:33:00,87.6,78.3,29.91,ENE,68,2.7,2.7,74,0.00,,---,0.04,VWS V14.01,2013-04-12 15:33:00,
2013-04-12 11:38:00,86.5,76.4,29.91,ENE,68,2.7,2.7,72,0.00,,---,0.04,VWS V14.01,2013-04-12 15:38:00,
2013-04-12 11:43:00,86.4,76.3,29.91,ENE,68,2.7,2.7,72,0.00,,---,0.04,VWS V14.01,2013-04-12 15:43:00,
2013-04-12 11:48:00,87.3,77.1,29.91,ENE,68,2.7,2.7,72,0.00,,---,0.04,VWS V14.01,2013-04-12 15:48:00,
2013-04-12 11:53:00,86.9,75.9,29.91,ENE,68,2.7,2.7,70,0.00,,---,0.04,VWS V14.01,2013-04-12 15:53:00,
2013-04-12 11:58:00,87.1,76.1,29.91,ENE,68,2.7,2.7,70,0.00,,---,0.04,VWS V14.01,2013-04-12 15:58:00,
2013-04-12 12:03:00,87.1,75.7,29.91,ENE,68,2.7,2.7,69,0.00,,---,0.04,VWS V14.01,2013-04-12 16:03:00,
2013-04-12 12:08:00,88.2,75.8,29.91,ENE,68,2.7,2.7,67,0.00,,---,0.04,VWS V14.01,2013-04-12 16:08:00,
2013-04-12 12:13:00,88.3,76.0,29.91,ENE,68,2.7,2.7,67,0.00,,---,0.04,VWS V14.01,2013-04-12 16:13:00,
2013-04-12 12:18:00,88.7,75.9,29.88,ENE,68,2.7,2.7,66,0.00,,---,0.04,VWS V14.01,2013-04-12 16:18:00,
2013-04-12 12:23:00,88.7,75.0,29.88,ENE,68,2.7,2.7,64,0.00,,---,0.04,VWS V14.01,2013-04-12 16:23:00,
2013-04-12 12:28:00,88.5,74.8,29.88,ENE,68,2.7,2.7,64,0.00,,---,0.04,VWS V14.01,2013-04-12 16:28:00,
2013-04-12 12:33:00,89.2,75.9,29.88,ENE,68,2.7,2.7,65,0.00,,---,0.04,VWS V14.01,2013-04-12 16:33:00,
2013-04-12 12:38:00,89.6,76.3,29.88,ENE,68,2.7,2.7,65,0.00,,---,0.04,VWS V14.01,2013-04-12 16:38:00,
2013-04-12 12:43:00,89.2,75.9,29.88,ENE,68,2.7,2.7,65,0.00,,---,0.04,VWS V14.01,2013-04-12 16:43:00,
2013-04-12 12:48:00,89.1,75.8,29.88,ENE,68,2.7,2.7,65,0.00,,---,0.04,VWS V14.01,2013-04-12 16:48:00,
2013-04-12 12:53:00,88.9,75.6,29.88,ENE,68,2.7,2.7,65,0.00,,---,0.04,VWS V14.01,2013-04-12 16:53:00,
2013-04-12 12:58:00,89.4,76.1,29.88,ENE,68,2.7,2.7,65,0.00,,---,0.04,VWS V14.01,2013-04-12 16:58:00,
2013-04-12 13:03:00,88.9,75.1,29.85,ENE,68,2.7,2.7,64,0.00,,---,0.04,VWS V14.01,2013-04-12 17:03:00,
2013-04-12 13:08:00,89.8,76.0,29.85,ENE,68,2.7,2.7,64,0.00,,---,0.04,VWS V14.01,2013-04-12 17:08:00,
2013-04-12 13:13:00,89.8,76.0,29.85,ENE,68,2.7,2.7,64,0.00,,---,0.04,VWS V14.01,2013-04-12 17:13:00,
2013-04-12 13:18:00,89.2,75.5,29.85,ENE,68,2.7,2.7,64,0.00,,---,0.04,VWS V14.01,2013-04-12 17:18:00,
2013-04-12 13:23:00,89.2,75.5,29.85,ENE,68,2.7,2.7,64,0.00,,---,0.04,VWS V14.01,2013-04-12 17:23:00,
2013-04-12 13:28:00,89.6,75.3,29.85,ENE,68,2.7,2.7,63,0.00,,---,0.04,VWS V14.01,2013-04-12 17:28:00,
2013-04-12 13:33:00,90.1,75.8,29.85,ENE,68,2.7,2.7,63,0.00,,---,0.04,VWS V14.01,2013-04-12 17:33:00,
2013-04-12 13:38:00,90.0,75.7,29.85,ENE,68,2.7,2.7,63,0.00,,---,0.04,VWS V14.01,2013-04-12 17:38:00,
2013-04-12 13:43:00,89.8,75.5,29.85,ENE,68,2.7,2.7,63,0.00,,---,0.04,VWS V14.01,2013-04-12 17:43:00,
2013-04-12 13:48:00,90.7,76.8,29.85,ENE,68,2.7,2.7,64,0.00,,---,0.04,VWS V14.01,2013-04-12 17:48:00,
2013-04-12 13:53:00,90.0,75.7,29.85,ENE,68,2.7,2.7,63,0.00,,---,0.04,VWS V14.01,2013-04-12 17:53:00,
2013-04-12 13:58:00,89.2,74.5,29.85,ENE,68,2.7,2.7,62,0.00,,---,0.04,VWS V14.01,2013-04-12 17:58:00,
2013-04-12 14:03:00,89.1,75.3,29.85,ENE,68,2.7,2.7,64,0.00,,---,0.04,VWS V14.01,2013-04-12 18:03:00,
2013-04-12 14:08:00,89.8,76.4,29.85,ENE,68,2.7,2.7,65,0.00,,---,0.04,VWS V14.01,2013-04-12 18:08:00,
2013-04-12 14:13:00,89.4,76.1,29.85,ENE,68,2.7,2.7,65,0.00,,---,0.04,VWS V14.01,2013-04-12 18:13:00,
2013-04-12 14:18:00,87.6,74.9,29.85,ENE,68,2.7,2.7,66,0.00,,---,0.04,VWS V14.01,2013-04-12 18:18:00,
2013-04-12 14:23:00,86.9,74.6,29.85,ENE,68,2.7,2.7,67,0.00,,---,0.04,VWS V14.01,2013-04-12 18:23:00,
2013-04-12 14:29:00,86.5,74.7,29.85,ENE,68,2.7,2.7,68,0.00,,---,0.04,VWS V14.01,2013-04-12 18:29:00,
2013-04-12 14:30:00,86.7,76.6,29.85,ENE,68,2.7,2.7,72,0.00,,---,0.04,VWS V14.01,2013-04-12 18:30:00,
2013-04-12 14:31:00,86.7,76.6,29.85,ENE,68,2.7,2.7,72,0.00,,---,0.04,VWS V14.01,2013-04-12 18:31:00,
2013-04-12 14:32:00,87.1,77.0,29.85,ENE,68,2.7,2.7,72,0.00,,---,0.04,VWS V14.01,2013-04-12 18:32:00,
2013-04-12 14:33:00,87.1,77.0,29.85,ENE,68,2.7,2.7,72,0.00,,---,0.04,VWS V14.01,2013-04-12 18:33:00,
2013-04-12 14:34:00,87.1,76.1,29.85,ENE,68,2.7,2.7,70,0.00,,---,0.04,VWS V14.01,2013-04-12 18:34:00,
2013-04-12 15:22:00,86.0,75.9,29.79,East,90,5.6,5.6,72,0.00,,---,0.04,VWS V14.01,2013-04-12 19:22:00,
2013-04-12 15:28:00,87.1,77.0,29.85,ENE,68,2.7,2.7,72,0.00,,---,0.04,VWS V14.01,2013-04-12 19:28:00,
2013-04-12 15:33:00,87.1,75.7,29.82,ENE,68,2.7,2.7,69,0.00,,---,0.04,VWS V14.01,2013-04-12 19:33:00,
2013-04-12 15:38:00,87.1,76.5,29.82,ENE,68,2.7,2.7,71,0.00,,---,0.04,VWS V14.01,2013-04-12 19:38:00,
2013-04-12 15:43:00,86.9,75.5,29.82,ENE,68,2.7,2.7,69,0.00,,---,0.04,VWS V14.01,2013-04-12 19:43:00,
2013-04-12 15:48:00,86.9,76.4,29.82,ENE,68,2.7,2.7,71,0.00,,---,0.04,VWS V14.01,2013-04-12 19:48:00,
2013-04-12 15:53:00,87.3,76.3,29.82,ENE,68,2.7,2.7,70,0.00,,---,0.04,VWS V14.01,2013-04-12 19:53:00,
2013-04-12 15:58:00,87.1,75.7,29.82,ENE,68,2.7,2.7,69,0.00,,---,0.04,VWS V14.01,2013-04-12 19:58:00,
2013-04-12 16:03:00,87.1,75.2,29.79,ENE,68,2.7,2.7,68,0.00,,---,0.04,VWS V14.01,2013-04-12 20:03:00,
2013-04-12 16:08:00,87.1,75.7,29.79,ENE,68,2.7,2.7,69,0.00,,---,0.04,VWS V14.01,2013-04-12 20:08:00,
2013-04-12 16:13:00,86.5,75.6,29.79,ENE,68,2.7,2.7,70,0.00,,---,0.04,VWS V14.01,2013-04-12 20:13:00,